CW4114 Weather Reports


time (UTC)temp
C
wind
direction
speed
KPH
gust
KPH
rain 1hr
cm
rain 24hr
cm
rain mn
cm
humidity
%
barometer
mb
20260903011701 20 292 0.0 3.2 0.00 0.00 0.00 86 1011.3
20260903010932 20 25 0.0 3.2 0.00 0.00 0.00 86 1011.3
20260903010431 20 21 0.0 1.6 0.00 0.00 0.00 86 1011.2
20260903005931 20 302 0.0 1.6 0.00 0.00 0.00 86 1011.0
20260903005430 20 49 0.0 0.0 0.00 0.00 0.00 86 1010.9
20260903004429 20 59 0.0 6.4 0.00 0.00 0.00 86 1010.9
20260903003930 20 41 1.6 4.8 0.00 0.00 0.00 85 1010.9
20260903003655 20 319 0.0 4.8 0.00 0.00 0.00 85 1010.9
20260903002928 20 25 0.0 4.8 0.00 0.00 0.00 85 1010.8
20260903002427 21 17 1.6 3.2 0.00 0.00 0.00 84 1010.8
20260903001925 21 322 0.0 0.0 0.00 0.00 0.00 84 1010.8
20260903001425 21 322 0.0 1.6 0.00 0.00 0.00 84 1010.7
20260903001153 21 322 0.0 1.6 0.00 0.00 0.00 83 1010.8
20260903000426 21 21 0.0 3.2 0.00 0.00 0.00 83 1010.8
20260902235923 21 40 1.6 3.2 0.00 0.00 0.00 83 1010.7
20260902235418 21 326 0.0 0.0 0.00 0.00 0.00 82 1010.7
20260902234918 21 326 0.0 0.0 0.00 0.00 0.00 82 1010.6
20260902233918 21 340 0.0 1.6 0.00 0.00 0.00 81 1010.6
20260902233417 22 19 0.0 1.6 0.00 0.00 0.00 80 1010.5
20260902233147 22 21 0.0 1.6 0.00 0.00 0.00 80 1010.6
20260902232414 22 21 0.0 1.6 0.00 0.00 0.00 80 1010.6
20260902232146 22 21 0.0 3.2 0.00 0.00 0.00 79 1010.7
20260902231641 22 27 1.6 3.2 0.00 0.00 0.00 79 1010.7
20260902230914 22 310 0.0 3.2 0.00 0.00 0.00 79 1010.8
20260902230412 22 340 0.0 4.8 0.00 0.00 0.00 78 1010.7
20260902225912 22 7 1.6 4.8 0.00 0.00 0.00 78 1010.7
20260902225412 22 330 0.0 4.8 0.00 0.00 0.00 78 1010.8
20260902224912 22 327 0.0 4.8 0.00 0.00 0.00 79 1010.8
20260902224411 22 17 0.0 4.8 0.00 0.00 0.00 80 1010.9
20260902223913 22 322 0.0 8.0 0.00 0.00 0.00 81 1010.8
20260902223411 22 313 0.0 8.0 0.00 0.00 0.00 82 1010.8
20260902223139 21 300 3.2 8.0 0.00 0.00 0.00 83 1010.9
20260902222410 21 345 0.0 8.0 0.00 0.00 0.00 84 1010.9
20260902221909 21 351 0.0 8.0 0.00 0.00 0.00 85 1010.7
20260902221410 21 305 0.0 8.0 0.00 0.00 0.00 85 1010.7
20260902220905 21 11 0.0 4.8 0.00 0.00 0.00 85 1010.5
20260902220404 21 285 0.0 8.0 0.00 0.00 0.00 85 1010.6
20260902215904 21 7 1.6 8.0 0.00 0.00 0.00 85 1010.5
20260902215405 21 21 0.0 8.0 0.00 0.00 0.00 85 1010.5
20260902215133 21 31 1.6 8.0 0.00 0.00 0.00 85 1010.6
20260902214402 21 11 0.0 6.4 0.00 0.00 0.00 84 1010.6
20260902213905 21 306 1.6 6.4 0.00 0.00 0.00 84 1010.6
20260902213629 21 15 0.0 6.4 0.00 0.00 0.00 83 1010.6
20260902212903 21 209 0.0 6.4 0.00 0.00 0.00 83 1010.7
20260902212446 21 353 0.0 6.4 0.00 0.00 0.00 82 1010.7
20260902211902 22 345 1.6 4.8 0.00 0.00 0.00 82 1010.7
20260902211402 22 358 1.6 4.8 0.00 0.00 0.00 81 1010.7
20260902210903 22 264 1.6 4.8 0.00 0.00 0.00 81 1010.7
20260902210403 22 34 1.6 4.8 0.00 0.00 0.00 81 1010.6
20260902205905 22 8 0.0 8.0 0.00 0.00 0.00 80 1010.5
20260902205633 22 31 3.2 8.0 0.00 0.00 0.00 81 1010.4
20260902204903 22 259 1.6 6.4 0.00 0.00 0.00 81 1010.5
20260902204650 22 73 1.6 6.4 0.00 0.00 0.00 81 1010.5
20260902204134 23 316 1.6 9.7 0.00 0.00 0.00 78 1010.5
20260902203401 23 24 1.6 9.7 0.00 0.00 0.00 78 1010.5
20260902202859 23 12 4.8 9.7 0.00 0.00 0.00 78 1010.5
20260902202616 23 41 3.2 9.7 0.00 0.00 0.00 75 1010.8
20260902202536 23 329 4.8 9.7 0.00 0.00 0.00 77 1010.6
20260902201415 24 37 1.6 11.3 0.00 0.00 0.00 74 1010.7
20260902200855 24 24 0.0 14.5 0.00 0.00 0.00 72 1010.8
20260902200355 25 330 1.6 14.5 0.00 0.00 0.00 70 1010.9
20260902195854 27 34 4.8 14.5 0.00 0.00 0.00 59 1011.0
20260902195355 27 190 0.0 16.1 0.00 0.00 0.00 58 1011.0
20260902195118 27 300 9.7 16.1 0.00 0.00 0.00 57 1011.1
20260902194351 27 299 3.2 11.3 0.00 0.00 0.00 59 1011.1
20260902193851 27 255 6.4 14.5 0.00 0.00 0.00 60 1011.1
20260902193749 27 306 6.4 14.5 0.00 0.00 0.00 58 1011.1
20260902192849 27 272 6.4 17.7 0.00 0.00 0.00 60 1011.2
20260902192351 27 234 8.0 17.7 0.00 0.00 0.00 60 1011.4
20260902191850 27 269 3.2 17.7 0.00 0.00 0.00 62 1011.5
20260902191353 27 314 4.8 11.3 0.00 0.00 0.00 63 1011.4
20260902190851 26 272 6.4 19.3 0.00 0.00 0.00 66 1011.4
20260902190400 26 265 11.3 19.3 0.00 0.00 0.00 65 1011.6
20260902185852 26 307 8.0 17.7 0.00 0.00 0.00 67 1011.6
20260902185619 26 262 8.0 19.3 0.00 0.00 0.00 66 1011.6
20260902184857 26 281 11.3 19.3 0.00 0.00 0.00 65 1011.6
20260902184352 26 240 6.4 17.7 0.00 0.00 0.00 64 1011.6
20260902184117 26 317 8.0 20.9 0.00 0.00 0.00 65 1011.6
20260902183353 25 282 9.7 16.1 0.00 0.00 0.00 66 1011.6
20260902182851 25 292 3.2 16.1 0.00 0.00 0.00 67 1011.5
20260902182347 25 285 6.4 16.1 0.00 0.00 0.00 65 1011.4
20260902181847 25 261 4.8 17.7 0.00 0.00 0.00 66 1011.4
20260902181348 25 292 3.2 17.7 0.00 0.00 0.00 67 1011.2
20260902180848 25 259 9.7 16.1 0.00 0.00 0.00 66 1011.2
20260902180349 25 292 6.4 11.3 0.00 0.00 0.00 70 1011.2
20260902175848 25 292 3.2 9.7 0.00 0.00 0.00 70 1011.1
20260902175349 25 288 6.4 14.5 0.00 0.00 0.00 70 1011.0
20260902174851 24 261 8.0 16.1 0.00 0.00 0.00 71 1011.0
20260902174349 24 267 8.0 16.1 0.00 0.00 0.00 72 1011.1
20260902173850 25 257 3.2 14.5 0.00 0.00 0.00 74 1011.2
20260902173112 24 262 9.7 16.1 0.00 0.00 0.00 73 1011.5
20260902172348 24 276 9.7 22.5 0.00 0.00 0.00 76 1011.5
20260902171848 23 259 14.5 22.5 0.00 0.00 0.00 76 1011.7
20260902171347 23 252 9.7 17.7 0.00 0.00 0.00 80 1011.6
20260902170847 23 248 9.7 16.1 0.00 0.00 0.00 80 1011.6
20260902170346 23 217 6.4 20.9 0.00 0.00 0.00 81 1011.6
20260902165846 23 243 9.7 20.9 0.00 0.00 0.00 81 1011.5
20260902165348 23 254 6.4 19.3 0.00 0.00 0.00 82 1011.6
20260902165114 23 268 6.4 14.5 0.00 0.00 0.00 85 1011.5
20260902164347 22 282 4.8 14.5 0.00 0.00 0.00 86 1011.5
20260902163846 22 272 6.4 16.1 0.00 0.00 0.00 87 1011.7
20260902163351 22 293 8.0 16.1 0.00 0.00 0.00 87 1011.8
20260902162847 22 262 8.0 16.1 0.00 0.00 0.00 88 1011.8
20260902162617 22 267 6.4 16.1 0.00 0.00 0.00 88 1011.7
20260902161844 22 267 6.4 11.3 0.00 0.00 0.00 88 1011.5
20260902161346 21 250 6.4 9.7 0.00 0.00 0.00 89 1011.6
20260902160843 21 258 3.2 8.0 0.00 0.00 0.00 89 1011.5
20260902160343 21 317 1.6 9.7 0.00 0.00 0.00 90 1011.6
20260902155845 22 358 0.0 9.7 0.00 0.00 0.00 89 1011.8
20260902155341 22 307 1.6 9.7 0.00 0.00 0.00 89 1011.9
20260902154839 22 289 3.2 9.7 0.00 0.00 0.00 90 1011.5
20260902154337 21 336 3.2 9.7 0.00 0.00 0.00 93 1011.5
20260902153837 21 255 0.0 1.6 0.00 0.00 0.00 93 1011.4
20260902153334 21 12 0.0 0.0 0.00 0.00 0.00 94 1011.3
20260902152835 21 12 0.0 1.6 0.00 0.00 0.00 94 1011.1
20260902152334 21 12 0.0 3.2 0.00 0.00 0.00 94 1010.9
20260902151834 21 34 0.0 3.2 0.00 0.00 0.00 93 1010.8
20260902151334 21 300 1.6 4.8 0.00 0.00 0.00 93 1010.9
20260902150834 21 62 3.2 4.8 0.00 0.00 0.00 92 1010.7
20260902150559 21 41 0.0 3.2 0.00 0.00 0.00 91 1010.8
20260902150057 21 309 0.0 4.8 0.00 0.00 0.00 91 1010.8
20260902145331 21 61 3.2 4.8 0.00 0.00 0.00 91 1010.2
20260902144832 21 42 1.6 3.2 0.00 0.00 0.00 91 1009.9
20260902144331 21 92 0.0 3.2 0.00 0.00 0.00 91 1009.6
20260902143831 21 92 0.0 4.8 0.00 0.00 0.00 92 1009.5
20260902143331 21 90 1.6 4.8 0.00 0.00 0.00 92 1009.2
20260902142832 21 110 1.6 4.8 0.00 0.00 0.00 91 1009.5
20260902142330 21 72 0.0 4.8 0.00 0.00 0.00 91 1010.0
20260902141832 21 19 0.0 6.4 0.00 0.00 0.00 92 1010.9
20260902140830 21 290 0.0 8.0 0.00 0.00 0.00 93 1010.9
20260902140409 21 254 1.6 17.7 0.00 0.00 0.00 94 1010.9
20260902135332 21 274 6.4 20.9 0.00 0.00 0.00 96 1012.5
20260902134831 21 271 9.7 20.9 0.00 0.00 0.00 97 1012.8
20260902134331 21 251 11.3 22.5 0.00 0.00 0.00 97 1012.9
20260902133332 21 319 8.0 20.9 0.00 0.00 0.00 98 1012.8
20260902132832 21 326 9.7 19.3 0.00 0.00 0.00 98 1012.7
20260902132604 21 271 9.7 20.9 0.00 0.00 0.00 98 1012.4
20260902131831 21 290 9.7 20.9 0.00 0.00 0.00 98 1012.3
20260902131330 21 327 6.4 11.3 0.00 0.00 0.00 98 1012.1
20260902131106 21 275 6.4 14.5 0.00 0.00 0.00 98 1012.0
20260902130332 21 267 9.7 16.1 0.00 0.00 0.00 98 1012.0
20260902125831 21 281 4.8 16.1 0.00 0.00 0.00 98 1011.8
20260902125558 20 269 3.2 8.0 0.00 0.00 0.00 98 1011.7
20260902125104 20 278 1.6 3.2 0.00 0.00 0.00 98 1011.6
20260902124332 20 312 0.0 1.6 0.00 0.00 0.00 98 1011.5
20260902123834 20 312 0.0 3.2 0.00 0.00 0.00 98 1011.3
20260902123557 20 27 1.6 3.2 0.00 0.00 0.00 98 1011.2
20260902122827 20 34 0.0 3.2 0.00 0.00 0.00 98 1011.2
20260902122327 20 52 1.6 3.2 0.00 0.00 0.00 98 1011.3
20260902121827 20 290 0.0 1.6 0.00 0.00 0.00 98 1011.3
20260902120827 20 316 0.0 0.0 0.00 0.00 0.00 98 1011.1
20260902120328 20 316 0.0 1.6 0.00 0.00 0.00 98 1010.9
20260902115827 20 316 0.0 4.8 0.00 0.00 0.00 98 1010.8
20260902115324 20 324 0.0 4.8 0.00 0.00 0.00 98 1010.6
20260902115054 20 306 0.0 4.8 0.00 0.00 0.00 97 1010.7
20260902113824 20 19 0.0 3.2 0.00 0.00 0.00 98 1010.6
20260902113325 20 19 0.0 1.6 0.00 0.00 0.00 97 1010.5
20260902112824 20 345 0.0 0.0 0.00 0.00 0.00 97 1010.5
20260902112324 20 345 0.0 0.0 0.00 0.00 0.00 97 1010.4
20260902111824 20 345 0.0 0.0 0.00 0.00 0.00 97 1010.4
20260902111323 21 345 0.0 0.0 0.00 0.00 0.00 98 1010.3
20260902110822 21 345 0.0 0.0 0.00 0.00 0.00 98 1010.3
20260902110319 21 345 0.0 0.0 0.00 0.00 0.00 98 1010.3
20260902105821 21 309 0.0 1.6 0.00 0.00 0.00 98 1010.4
20260902105321 21 309 0.0 3.2 0.00 0.00 0.00 98 1010.4
20260902104818 21 274 0.0 4.8 0.00 0.00 0.00 98 1010.6
20260902104318 21 265 0.0 4.8 0.00 0.00 0.00 98 1010.6
20260902104050 21 299 0.0 4.8 0.00 0.00 0.00 98 1010.4
20260902103319 21 320 0.0 4.8 0.00 0.00 0.00 98 1010.5
20260902102815 21 312 0.0 4.8 0.00 0.00 0.00 98 1010.5
20260902102540 21 293 1.6 8.0 0.00 0.00 0.00 98 1010.5
20260902101814 21 300 1.6 8.0 0.00 0.00 0.00 98 1010.5
20260902101316 21 309 0.0 8.0 0.00 0.00 0.00 98 1010.4
20260902100814 21 306 0.0 6.4 0.00 0.00 0.00 98 1010.4
20260902100313 21 343 1.6 6.4 0.00 0.00 0.00 98 1010.4
20260902095814 21 269 1.6 4.8 0.00 0.00 0.00 98 1010.4
20260902095308 21 267 1.6 6.4 0.00 0.00 0.00 97 1010.3
20260902095037 21 265 1.6 6.4 0.00 0.00 0.00 97 1010.3
20260902094307 21 279 4.8 8.0 0.00 0.00 0.00 97 1010.4
20260902093809 21 289 4.8 8.0 0.00 0.00 0.00 98 1010.3
20260902093532 21 257 3.2 6.4 0.00 0.00 0.00 97 1010.1
20260902092804 20 265 3.2 6.4 0.00 0.00 0.00 97 1010.2
20260902092305 20 250 3.2 4.8 0.00 0.00 0.00 97 1010.1
20260902091804 20 258 1.6 4.8 0.00 0.00 0.00 97 1010.1
20260902091304 20 259 3.2 4.8 0.00 0.00 0.00 97 1010.2
20260902090804 20 259 1.6 4.8 0.00 0.00 0.00 97 1010.2
20260902090305 20 261 3.2 4.8 0.00 0.00 0.00 97 1010.0
20260902085804 20 261 3.2 4.8 0.00 0.00 0.00 97 1010.1
20260902085308 20 230 1.6 1.6 0.00 0.00 0.00 97 1010.1
20260902084803 20 231 0.0 0.0 0.00 0.00 0.00 97 1010.1
20260902084301 20 353 0.0 0.0 0.00 0.00 0.00 97 1010.1
20260902084028 20 353 0.0 0.0 0.00 0.00 0.00 97 1010.0
20260902083528 21 310 0.0 3.2 0.00 0.00 0.00 97 1010.1
20260902083034 21 310 0.0 3.2 0.00 0.00 0.00 97 1010.0
20260902082259 20 313 0.0 1.6 0.00 0.00 0.00 97 1010.1
20260902081757 20 310 0.0 3.2 0.00 0.00 0.00 97 1010.0
20260902081258 20 309 0.0 3.2 0.00 0.00 0.00 97 1010.1
20260902080757 20 25 0.0 4.8 0.00 0.00 0.00 96 1010.1
20260902080523 20 27 3.2 4.8 0.00 0.00 0.00 96 1010.1
20260902075756 20 316 0.0 0.0 0.00 0.00 0.00 96 1010.0
20260902075255 21 27 0.0 0.0 0.00 0.00 0.00 96 1009.9
20260902074754 21 27 0.0 0.0 0.00 0.00 0.00 96 1009.9
20260902074255 21 25 0.0 0.0 0.00 0.00 0.00 96 1009.9
20260902073754 21 25 0.0 4.8 0.00 0.00 0.00 96 1010.0
20260902073254 21 25 3.2 4.8 0.00 0.00 0.00 96 1010.0
20260902072752 21 15 0.0 3.2 0.00 0.00 0.00 96 1010.0
20260902072253 21 15 0.0 8.0 0.00 0.00 0.00 96 1010.1
20260902071753 21 329 1.6 11.3 0.00 0.00 0.00 96 1010.0
20260902071253 21 254 8.0 11.3 0.00 0.00 0.00 96 1009.9
20260902070748 21 262 6.4 9.7 0.00 0.00 0.00 96 1009.9
20260902070248 21 261 6.4 16.1 0.00 0.00 0.00 96 1009.7
20260902065748 21 268 6.4 16.1 0.00 0.00 0.00 96 1009.6
20260902065516 21 255 6.4 11.3 0.00 0.00 0.00 96 1009.5
20260902064747 21 255 6.4 8.0 0.00 0.00 0.00 96 1009.5
20260902064246 21 259 4.8 8.0 0.00 0.00 0.00 96 1009.4
20260902063745 21 254 4.8 8.0 0.00 0.00 0.00 96 1009.4
20260902063244 21 247 4.8 8.0 0.00 0.00 0.00 96 1009.4
20260902063016 21 227 4.8 8.0 0.00 0.00 0.00 96 1009.2
20260902061743 21 223 6.4 11.3 0.00 0.00 0.00 96 1009.4
20260902061242 21 233 3.2 9.7 0.00 0.00 0.00 96 1009.4
20260902060742 21 216 3.2 9.7 0.00 0.00 0.00 96 1009.6
20260902060244 21 244 4.8 9.7 0.00 0.00 0.00 96 1009.7
20260902055740 21 250 4.8 8.0 0.00 0.00 0.00 96 1009.7
20260902055238 21 221 3.2 8.0 0.00 0.00 0.00 95 1009.7
20260902054739 21 241 3.2 8.0 0.00 0.00 0.00 95 1009.7
20260902054240 21 216 3.2 8.0 0.00 0.00 0.00 95 1009.8
20260902053239 21 209 3.2 6.4 0.00 0.00 0.00 95 1009.8
20260902052738 21 219 3.2 8.0 0.00 0.00 0.00 95 1009.8
20260902052237 21 221 3.2 8.0 0.00 0.00 0.00 95 1009.9
20260902051734 21 221 3.2 8.0 0.00 0.00 0.00 94 1010.0
20260902051234 21 236 4.8 8.0 0.00 0.00 0.00 94 1010.1
20260902050734 21 221 3.2 9.7 0.00 0.00 0.00 94 1010.2
20260902050233 21 226 4.8 9.7 0.00 0.00 0.00 94 1010.2
20260902045731 21 217 3.2 9.7 0.00 0.00 0.00 94 1010.2
20260902045231 21 237 3.2 8.0 0.00 0.00 0.00 94 1010.2
20260902044734 21 230 4.8 8.0 0.00 0.00 0.00 93 1010.2
20260902044231 21 223 3.2 8.0 0.00 0.00 0.00 93 1010.2
20260902043731 21 252 4.8 8.0 0.00 0.00 0.00 93 1010.3
20260902043231 21 238 3.2 8.0 0.00 0.00 0.00 92 1010.1
20260902042231 21 254 4.8 11.3 0.00 0.00 0.00 92 1010.3
20260902041731 21 276 8.0 11.3 0.00 0.00 0.00 92 1010.3
20260902041231 21 248 6.4 11.3 0.00 0.00 0.00 92 1010.3
20260902040732 21 251 4.8 11.3 0.00 0.00 0.00 92 1010.3
20260902040234 21 245 6.4 14.5 0.00 0.00 0.00 92 1010.2
20260902035731 21 245 6.4 14.5 0.00 0.00 0.00 92 1010.2
20260902035505 21 254 4.8 16.1 0.00 0.00 0.00 92 1010.3
20260902034956 21 202 4.8 16.1 0.00 0.00 0.00 92 1010.3
20260902034508 21 233 4.8 11.3 0.00 0.00 0.00 93 1010.3
20260902033732 21 255 4.8 11.3 0.00 0.00 0.00 93 1010.2
20260902033231 21 231 4.8 11.3 0.00 0.00 0.00 93 1010.3
20260902032959 21 224 3.2 11.3 0.00 0.00 0.00 94 1010.2
20260902032234 21 214 6.4 11.3 0.00 0.00 0.00 94 1010.3
20260902031731 21 209 4.8 9.7 0.00 0.00 0.00 94 1010.3
20260902031230 21 247 4.8 14.5 0.00 0.00 0.00 94 1010.2
20260902030731 21 265 6.4 14.5 0.00 0.00 0.00 94 1010.2
20260902030231 21 254 6.4 9.7 0.00 0.00 0.00 94 1010.3
20260902025732 21 279 6.4 9.7 0.00 0.00 0.00 94 1010.4
20260902025231 21 257 6.4 9.7 0.00 0.00 0.00 94 1010.5
20260902024731 21 231 4.8 11.3 0.00 0.00 0.00 94 1010.3
20260902024231 21 250 6.4 16.1 0.00 0.00 0.00 94 1010.4
20260902023731 21 241 6.4 16.1 0.00 0.00 0.00 94 1010.3
20260902023232 21 210 8.0 16.1 0.00 0.00 0.00 94 1010.2
20260902022731 21 265 6.4 11.3 0.00 0.00 0.00 94 1010.3
20260902022230 21 158 4.8 16.1 0.00 0.00 0.00 94 1010.2
20260902021731 21 234 4.8 16.1 0.00 0.00 0.00 93 1010.3
20260902021231 21 175 4.8 16.1 0.00 0.00 0.00 93 1010.3
20260902020731 22 179 6.4 16.1 0.00 0.00 0.00 93 1010.4
20260902020231 22 214 4.8 9.7 0.00 0.00 0.00 93 1010.5
20260902015731 22 109 1.6 9.7 0.00 0.00 0.00 93 1010.5
20260902015232 22 183 3.2 11.3 0.00 0.00 0.00 92 1010.4
20260902014731 22 148 3.2 11.3 0.00 0.00 0.00 93 1010.3
20260902014231 22 157 6.4 11.3 0.00 0.00 0.00 93 1010.4
20260902013731 22 172 4.8 11.3 0.00 0.00 0.00 93 1010.5
20260902013459 22 193 4.8 9.7 0.00 0.00 0.00 92 1010.4
20260902012726 22 183 3.2 9.7 0.00 0.00 0.00 92 1010.3
20260902012226 22 162 1.6 6.4 0.00 0.00 0.00 92 1010.3